STARLINK-5708, 55470

Orbit data source: Space-Track

STARLINK-5708, 55470 is a payload satellite owned by SpaceX/Seattle (US) in LEO that was launched on Thu, 02 Feb 2023 UTC via an FALCON 9 launch vehicle from the Air Force Eastern Test Range (AFETR). Payload-class satellites include a variety of spacecraft equipped with specific instruments for various scientific and technological missions. These include communications satellites like Starlink; space stations such as the ISS; scientific satellites like the Hubble; Earth observation satellites from companies like Planet Labs, Umbra, and HawkEye 360; GPS; miniature CubeSats for education and research; and military/defense satellites.

Loading next visibility...
Identifier
55470, 2023-015X
Orbit
LEO
Country
Flag of USUS
Related business
Manufacturer
SpaceX/Seattle
Mission
Operational Commercial Communications
Bus & Motor
STARLINK, Unknown motor
Mass
305 kg wet, ~290 kg dry
Launch date (UTC)
2023-02-02 (3 years ago)
Launch vehicle
FALCON 9
Launch site
Air Force Eastern Test Range (AFETR)
Object type
Payload
Rocket body
Debris
Shape & HBR
Box + 1 Pan, 10.1 m
Radar Cross Section
13.562 m², Large (>1 m²)

Expand to show TLE details & history
Last TLE update: 9 hours ago

TLE from 9 hours ago
0 STARLINK-5708
1 55470U 23015X   25303.30682426 -.00000069  00000-0  99849-5 0  9996
2 55470  43.0048 314.2295 0001299 274.3024  85.7670 15.02534218151147
Epoch: 2025-10-30T07:21Z
TLE epoch observation values (Epoch: 2025-10-30T07:21:49.616Z)
Latitude
0.00001°
Longitude
164.90528°
Altitude
558.797 km
Speed
7.584 km/s
True Right ascension
20h 56m 55s
True Declination
0° 00' 00"
Sunlit
Object was in daylight at epoch
Visualization orbit readout
Latitude
Unknown
Longitude
Unknown
Altitude
Unknown
Speed
Unknown
Apparent Right ascension
Unknown
Apparent Declination
Unknown
Sunlit
N/A
Visualization observer readout
Local Sidereal Time
11:53:28
Azimuth
Unknown
Elevation
Unknown
Doppler factor
Unknown
Orbital elements
Apogee altitude
561.91 km
Perigee altitude
560.107 km
Semi-major axis
6,939.145 km
Eccentricity
0.00013
Inclination
43.0048°
RAAN
314.2295°
Arg. of periapsis
274.3024°
True anomaly
85.78185°
Mean anomaly
85.767°
Eccentric anomaly
85.77442°
Mean motion
3.75478 °/min
Orbital period
95.88 mins
BSTAR
0.0000099849
Loading maneuver chart data...
Computing Atmospheric mass density...
Loading historical data...
Loading historical data...
Loading historical data...
Loading historical data...
Loading historical data...
Loading historical data...
Loading historical data...

Documentation

Showing up to 5 results
|